Regional Weather Roundup
Issued by NWS

Home | Current Version | Previous Version | Graphics & Text | Print | Product List | Glossary Off
Versions: 1 2 3 4 5 6 7 8 9 10 11 12 13 14 15 16 17 18 19 20 21 22 23 24 25 26 27 28 29 30 31 32 33 34 35 36 37 38 39 40 41 42 43 44 45 46 47 48 49 50

326
ASUS43 KMKX 222021
RWRWI

WISCONSIN REGIONAL WEATHER ROUNDUP
NATIONAL WEATHER SERVICE MILWAUKEE/SULLIVAN WI
300 PM CDT WED MAR 22 2017

NOTE: "FAIR" INDICATES FEW OR NO CLOUDS BELOW 12,000 FEET WITH NO
SIGNIFICANT WEATHER AND/OR OBSTRUCTIONS TO VISIBILITY.

WIZ001-002-006>008-014>016-023>028-222100-
NORTHWEST WISCONSIN

CITY           SKY/WX    TMP DP  RH WIND       PRES   REMARKS
SUPERIOR ARPT  CLOUDY    31  14  50 NE7       30.49F WCI  24
ASHLAND        MOSUNNY   34  14  43 N9        30.50F WCI  27
HAYWARD        CLOUDY    38   5  25 MISG      30.46F
SIREN          MOSUNNY   36   5  27 S6        30.46F WCI  31
CUMBERLAND     SUNNY     34   7  32 S8        30.47F WCI  27
RICE LAKE      SUNNY     36   8  32 CALM      30.49F
CHETEK         SUNNY     35   7  31 SE9       30.49F WCI  28
LADYSMITH      CLOUDY    36  10  33 S8        30.49F WCI  29
EAU CLAIRE     SUNNY     37   5  26 VRB7      30.48F WCI  32
MENOMONIE      SUNNY     38   6  26 SE12      30.48F WCI  31
NEW RICHMOND   SUNNY     37   7  28 S8        30.48F WCI  31
OSCEOLA        SUNNY     39   9  28 S10G17    30.49F WCI  32
$$

WIZ003>005-009-010-017-018-222100-
NORTH CENTRAL WISCONSIN

CITY           SKY/WX    TMP DP  RH WIND       PRES   REMARKS
MANITOWISH WTR SUNNY     31   4  31 S7        30.46F WCI  25
ARBOR VITAE    SUNNY     36   6  29 S5        30.45F WCI  32
WOODRUFF       SUNNY     36   6  29 S5        30.45F WCI  32
RHINELANDER    SUNNY     36   4  26 MISG      30.47F
EAGLE RIVER    CLOUDY    33  -2  22 SW9       30.45F WCI  26
LAND O LAKES   SUNNY     32   1  26 SW3       30.47F
PHILLIPS       SUNNY     32   5  32 CALM      30.46F
TOMAHAWK       SUNNY     35   6  29 S3        30.48F
MEDFORD        SUNNY     30  12  46 S8        30.48F WCI  23
MERRILL        SUNNY     33   7  33 CALM      30.49F
$$

WIZ029-030-035-036-043>047-222100-
CENTRAL WISCONSIN

CITY           SKY/WX    TMP DP  RH WIND       PRES   REMARKS
WAUSAU         SUNNY     33   5  30 SW3       30.48F
MOSINEE        MOSUNNY   34   7  32 VRB7      30.51F WCI  28
MARSHFIELD     SUNNY     34   8  33 SE7       30.48F WCI  28
STEVENS POINT  SUNNY     32   5  31 S8        30.51F WCI  25
WAUPACA        SUNNY     37   9  32 SE8       30.54F WCI  30
WAUTOMA        SUNNY     35  10  35 E7        30.53F WCI  29
WISC RAPIDS    SUNNY     36   4  26 S7        30.52F WCI  30
CAMP DOUGLAS   SUNNY     38   6  26 S10       30.50F WCI  31
$$

WIZ011>013-019>022-031-037>040-048>050-222100-
NORTHEAST WISCONSIN

CITY           SKY/WX    TMP DP  RH WIND       PRES   REMARKS
ANTIGO         SUNNY     31   5  33 SW5       30.49F WCI  27
SHAWANO        SUNNY     34  12  41 NE7       30.54F WCI  27
OCONTO         SUNNY     31  13  47 S6        30.58F WCI  25
STURGEON BAY   SUNNY     29  15  56 SE8       30.58F WCI  21
GREEN BAY      SUNNY     33  16  49 SE5       30.56F WCI  29
MANITOWOC      MOSUNNY   29  19  66 SE12      30.58F WCI  19
APPLETON       MOSUNNY   32   7  34 VRB5      30.53F WCI  27
CLINTONVILLE   SUNNY     34   9  35 SE3       30.54F
OSHKOSH        SUNNY     31  16  54 E8        30.54F WCI  23
$$

WIZ032>034-041-042-053>061-222100-
SOUTHWEST WISCONSIN

CITY           SKY/WX    TMP DP  RH WIND       PRES   REMARKS
LA CROSSE      SUNNY     41   7  24 S10       30.50F
SPARTA         SUNNY     38   7  26 SE9       30.50F WCI  32
VIROQUA        SUNNY     38   7  26 SE9       30.46F WCI  32
BOSCOBEL       SUNNY     41   5  22 VRB3      30.50F
PRAIRIE DU CHI SUNNY     40   7  25 E12       30.49F WCI  33
PLATTEVILLE    SUNNY     38  12  33 E8        30.49F WCI  33
$$

WIZ056-057-062-063-064-067-068-222100-
SOUTH CENTRAL WISCONSIN

CITY           SKY/WX    TMP DP  RH WIND       PRES   REMARKS
REEDSBURG      SUNNY     38   9  30 E9        30.50F WCI  31
BARABOO/DELLS  SUNNY     36  10  34 SE6       30.50F WCI  31
LONE ROCK      SUNNY     38   7  27 E7        30.51F WCI  33
MINERAL POINT  SUNNY     37   9  30 SE7       30.48F WCI  32
MADISON        PTSUNNY   36  12  37 SE9       30.52F WCI  29
MIDDLETON      SUNNY     38  15  38 E7        30.52F WCI  33
WATERTOWN      SUNNY     35  17  46 E3        30.53F
MONROE         SUNNY     37  14  38 E6        30.49F WCI  33
JANESVILLE     MOSUNNY   39  14  35 E9        30.52F WCI  33
$$

WIZ051-052-058>065-066-070>072-222100-
SOUTHEAST WISCONSIN

CITY           SKY/WX    TMP DP  RH WIND       PRES   REMARKS
MILWAUKEE      PTSUNNY   33  17  51 NE8G20    30.57F WCI  26
WAUKESHA       MOSUNNY   32  16  51 NE6       30.55F WCI  26
MILWAUKEE/TIMM MOSUNNY   32  14  47 NE8       30.57F WCI  25
RACINE         MOSUNNY   32  17  54 NE7G16    30.58F WCI  26
KENOSHA        MOSUNNY   32  19  58 E13       30.56F WCI  22
FOND DU LAC    SUNNY     34  16  47 E8        30.53F WCI  27
SHEBOYGAN      MOSUNNY   29  17  61 VRB3      30.56F
WEST BEND      SUNNY     32  18  55 E5        30.55F WCI  27
JUNEAU         SUNNY     34  16  49 E6        30.54F WCI  28
$$

LSZ147-162-222100-
LAKE SUPERIOR

STATION/POSITION TIME  TEMP    WIND        PRES    WAVE
                       AIR SEA DIR/SP/G            HT/PER
                 (UTC) (F)     (DEG/KT/KT) (MB)    (FT/S)
DEVILS ISLAND    2000   26      90/  8/ 10 1034.5F
PORT WING        1940   28      30/ 14/ 16 1032.8F
SAXON HARBOR     1940   27      40/ 11/ 13 1033.2F
$$

LMZ867-665-643>646-222100-
LAKE MICHIGAN

STATION/POSITION TIME  TEMP    WIND        PRES    WAVE
                       AIR SEA DIR/SP/G            HT/PER
                 (UTC) (F)     (DEG/KT/KT) (MB)    (FT/S)
CHAMBERS ISLAND  1940   29     330/  3/  5 1035.2F
NORTHPORT PIER   1940   24     130/  3/  6 1035.6F
SISTER BAY       1935   32     340/  8/  9   N/A
KEWAUNEE LAKESHO 1954   27     130/  4/  7 1035.0F
SHEBOYGAN LAKESH 2000   26      50/  6/  7 1036.2F
PORT WASHINGTON  1930   29      90/  6/  9 1036.6F
MILWAUKEE LAKESH 1950   29      50/  6/  8   N/A
KENOSHA   LAKESH 2000   28      70/  7/  9 1034.9
$$

TC  - TEMPERATURE IN CELSIUS
VSB - VISIBILITY IN STATUTE MILES
WCI - WIND CHILL INDEX
HX  - HEAT INDEX





USA.gov is the U.S. government's official web portal to all federal, state and local government web resources and services.